{"data":{"norad_id":55943,"intl_designator":"2023-037AF","name":"STARLINK-5932","alt_names":[],"object_type":"PAYLOAD","status":"ACTIVE","operator":null,"country":"US","launch_date":"2023-03-17","launch_site_code":"AFWTR","launch_vehicle":null,"mission":null,"orbit_class":"UNKNOWN","rcs_meters":null,"size_class":null,"mass_kg":null,"dimensions":null,"purposes":["comms"],"wikipedia_slug":null,"has_3d_model":false,"image_url":null,"decayed_at":null,"tle_current":{"epoch":"2026-09-20T22:00:03.000096Z","epoch_age_seconds":70199,"freshness":"FRESH","line1":"1 55943U 23037AF  26263.91670139  .00029085  00000+0  20377-2 0  9990","line2":"2 55943  69.9996 152.0037 0002560 278.9161 258.6500 15.05114999  5770","mean_motion":15.05114999,"eccentricity":0.000256,"inclination_deg":69.9996,"raan_deg":152.0037,"arg_perigee_deg":278.9161,"mean_anomaly_deg":258.65,"bstar":0.0020377,"rev_number":577,"period_min":95.673752567527,"perigee_km":549.37880448632,"apogee_km":552.92660081407,"semimajor_km":6929.2897026502,"source":"CELESTRAK","updated_at":"2026-09-21T09:00:33.328235Z"}}}